sat.trackr.live / text

‹ back to catalog

KUIPER-00436

NORAD 68939 · 2026-098W

PAYLOAD ACTIVE UNKNOWN

§ Identity

Operator
Country
US
Launch date
2026-04-30
Launch site
FRGUI
Launch vehicle
Mass (kg)
RCS (m²)

External: N2YO · Heavens-Above · Gunter

§ Orbital elements

Epoch: 2026-09-19T07:46:25.959648Z

Period
97.30 min
Inclination
51.9003°
Eccentricity
0.0000502
Mean motion
14.79927705 rev/d
Perigee alt
629.2 km
Apogee alt
629.9 km
Semi-major
7,007.7 km
B*
2.9830e-4
RAAN
1.8872°
Arg perigee
95.5693°
Mean anomaly
264.5327°
Rev number
2,142

§ Raw data

KUIPER-004361 68939U 26098W   26262.32391157  .00002053  00000+0  29830-3 0  99932 68939  51.9003   1.8872 0000502  95.5693 264.5327 14.79927705 21424

JSON: /api/v1/satellites/68939 · /tle

For live sub-satellite position, see the globe view (requires WebGL).

§ Visibility from observer

Set your observer location to see the next 7 days of passes ≥ 10°. The values pass through the URL so the page stays shareable.

No JS? Fill the form by hand. The geolocation button needs JavaScript.